Weather History for LFMN - March, 2013

Change the Weather History Date:

Thursday, March 7, 2013

  Actual Average Record
Temperature  
Mean Temperature 50 °F -  
Max Temperature 53 °F 59 °F 66 °F (1997)
Min Temperature 48 °F 45 °F 35 °F (2005)
Degree Days  
Heating Degree Days 14    
Moisture  
Dew Point 49 °F    
Average Humidity 92    
Maximum Humidity 100    
Minimum Humidity 87    
Precipitation  
Precipitation 0.35 in 0.09 in - ()
Sea Level Pressure  
Sea Level Pressure 29.65 in    
Wind  
Wind Speed 5 mph ()    
Max Wind Speed 12 mph    
Max Gust Speed -    
Visibility 4.3 miles    
Events Rain    
Averages and records for this station are not official NWS values.
T = Trace of Precipitation, MM = Missing Value Source: Averaged Metar Reports

Daily Weather History Graph

Daily Weather History Graph

Search for Another Location

Airport or City:

Trip Planner

Search our weather history database for the weather conditions in past years. The results will help you decide how hot, cold, wet, or windy it might be!

Date:

Astronomy

Mar. 07, 2013 Rise Set
Actual Time 6:57 AM CET 6:27 PM CET
Civil Twilight 6:28 AM CET 6:56 PM CET
Nautical Twilight 5:55 AM CET 7:29 PM CET
Astronomical Twilight 5:22 AM CET 8:02 PM CET
Moon 3:51 AM CET (3/7) 1:50 PM CET (3/7)
Length of Visible Light 12h 27m
Length of Day
11h 30m
Waning Crescent, 22% of the Moon is Illuminated
Mar 7
Waning Crescent
Mar 11
New
Mar 19
First Quarter
Mar 27
Full
Apr 3
Last Quarter

Hourly Weather History & Observations

Time (CET) Temp. Dew Point Humidity Pressure Visibility Wind Dir Wind Speed Gust Speed Precip Events Conditions
12:00 AM 48.2 °F 46.4 °F 93% 29.62 in 5.0 mi Variable 3.5 mph - N/A Rain Light Rain
12:30 AM 48.2 °F 46.4 °F 93% 29.59 in 3.7 mi North 3.5 mph - N/A Rain Rain
1:00 AM 49 °F 47 °F 89% 29.61 in 6 mi NNW 6.9 mph - - Rain Light Rain
1:00 AM 50.0 °F 46.4 °F 87% 29.59 in 5.6 mi NNW 6.9 mph - N/A Rain Light Rain
1:30 AM 50.0 °F 46.4 °F 87% 29.59 in 5.6 mi North 6.9 mph - N/A Rain Light Rain
2:00 AM 50.0 °F 48.2 °F 94% 29.59 in 5.0 mi NNW 8.1 mph - N/A Rain Light Rain
2:30 AM 50.0 °F 46.4 °F 87% 29.59 in 6.2 mi NNW 6.9 mph - N/A Rain Light Rain
3:00 AM 50.0 °F 48.2 °F 94% 29.59 in 4.3 mi NNW 8.1 mph - N/A Rain Light Rain
3:30 AM 50.0 °F 48.2 °F 94% 29.59 in 5.0 mi NNW 4.6 mph - N/A Rain Light Rain
4:00 AM 50.0 °F 48.2 °F 94% 29.59 in 5.0 mi Variable 1.2 mph - N/A Rain Light Rain
4:30 AM 50.0 °F 48.2 °F 94% 29.59 in 5.0 mi North 3.5 mph - N/A Rain Light Rain
5:00 AM 50.0 °F 48.2 °F 94% 29.59 in 2.5 mi NW 3.5 mph - N/A Rain Light Rain
5:30 AM 50.0 °F 48.2 °F 94% 29.62 in 1.6 mi NNW 2.3 mph - N/A Rain Light Rain
6:00 AM 50.0 °F 48.2 °F 94% 29.62 in 1.6 mi NNW 4.6 mph - N/A Rain Light Rain
6:30 AM 48.2 °F 48.2 °F 100% 29.62 in 2.5 mi North 3.5 mph - N/A Rain Light Rain
7:00 AM 49 °F 47 °F 92% 29.63 in 4 mi North 3.5 mph - - Rain Light Rain
7:00 AM 50.0 °F 48.2 °F 94% 29.62 in 4.3 mi North 4.6 mph - N/A Rain Light Rain
7:30 AM 48.2 °F 48.2 °F 100% 29.62 in 4.3 mi North 3.5 mph - N/A Rain Light Rain
7:40 AM 48.2 °F 48.2 °F 100% 29.62 in 2.5 mi North 4.6 mph - N/A Rain Light Rain
8:00 AM 48.2 °F 48.2 °F 100% 29.62 in 3.7 mi North 5.8 mph - N/A Rain Light Rain
8:30 AM 48.2 °F 46.4 °F 93% 29.65 in 2.5 mi NNW 6.9 mph - N/A Rain Light Rain
9:00 AM 50.0 °F 46.4 °F 87% 29.65 in 2.5 mi North 6.9 mph - N/A Rain Light Rain
9:30 AM 50.0 °F 48.2 °F 94% 29.65 in 2.5 mi Variable 3.5 mph - N/A Rain Light Rain
10:00 AM 50.0 °F 48.2 °F 94% 29.65 in 2.5 mi North 6.9 mph - N/A Rain Light Rain
10:30 AM 50.0 °F 48.2 °F 94% 29.68 in 1.6 mi Variable 2.3 mph - N/A Rain Light Rain
11:00 AM 50.0 °F 48.2 °F 94% 29.68 in 2.5 mi NNW 3.5 mph - N/A Rain Light Rain
11:30 AM 50.0 °F 48.2 °F 94% 29.68 in 1.9 mi North 4.6 mph - N/A Rain Light Rain
12:00 PM 51.8 °F 50.0 °F 94% 29.68 in 3.1 mi Variable 3.5 mph - N/A Rain Light Rain
12:21 PM 51.8 °F 50.0 °F 94% 29.68 in 2.5 mi ENE 3.5 mph - N/A Rain Light Rain
1:00 PM 53 °F 51 °F 89% 29.70 in 2 mi ENE 2.3 mph - - Rain Light Rain
1:00 PM 51.8 °F 50.0 °F 94% 29.68 in 2.5 mi ENE 3.5 mph - N/A Rain Light Rain
1:30 PM 53.6 °F 51.8 °F 94% 29.68 in 2.5 mi East 3.5 mph - N/A Rain Light Rain
2:00 PM 53.6 °F 50.0 °F 88% 29.68 in 3.7 mi East 2.3 mph - N/A Rain Light Rain
2:30 PM 53.6 °F 51.8 °F 94% 29.68 in 2.5 mi Calm Calm - N/A Rain Light Rain
3:00 PM 53.6 °F 51.8 °F 94% 29.68 in 3.7 mi East 3.5 mph - N/A Rain Light Rain
3:30 PM 53.6 °F 51.8 °F 94% 29.68 in 6.2 mi ESE 4.6 mph - N/A   Overcast
4:00 PM 53.6 °F 51.8 °F 94% 29.65 in 6.2 mi East 5.8 mph - N/A   Overcast
4:30 PM 53.6 °F 51.8 °F 94% 29.68 in 6.2 mi East 4.6 mph - N/A   Overcast
5:00 PM 53.6 °F 51.8 °F 94% 29.68 in 4.3 mi ESE 5.8 mph - N/A   Overcast
5:30 PM 53.6 °F 50.0 °F 88% 29.68 in 6.2 mi East 5.8 mph - N/A   Mostly Cloudy
6:00 PM 53.6 °F 50.0 °F 88% 29.68 in 6.2 mi ESE 4.6 mph - N/A   Mostly Cloudy
6:30 PM 53.6 °F 50.0 °F 88% 29.68 in 6.2 mi East 4.6 mph - N/A   Mostly Cloudy
7:00 PM 53 °F 51 °F 88% 29.71 in 7 mi East 3.5 mph - - Rain Light Drizzle
7:00 PM 53.6 °F 50.0 °F 88% 29.68 in 6.2 mi East 3.5 mph - N/A   Light Drizzle
7:30 PM 53.6 °F 50.0 °F 88% 29.71 in 6.2 mi East 4.6 mph - N/A   Light Drizzle
8:30 PM 53.6 °F 51.8 °F 94% 29.71 in 6.2 mi NE 4.6 mph - N/A   Light Drizzle
9:00 PM 53.6 °F 50.0 °F 88% 29.71 in 6.2 mi East 4.6 mph - N/A   Light Drizzle
9:43 PM 53.6 °F 50.0 °F 88% 29.71 in 6.2 mi East 9.2 mph - N/A   Light Drizzle
10:00 PM 53.6 °F 50.0 °F 88% 29.71 in 6.2 mi East 9.2 mph - N/A   Scattered Clouds
10:30 PM 53.6 °F 50.0 °F 88% 29.71 in 6.2 mi East 10.4 mph - N/A   Scattered Clouds
11:00 PM 53.6 °F 50.0 °F 88% 29.71 in 6.2 mi East 11.5 mph - N/A   Scattered Clouds
11:30 PM 53.6 °F 50.0 °F 88% 29.71 in 6.2 mi ENE 11.5 mph - N/A   Scattered Clouds